Regional Weather Roundup
Issued by NWS

Home | Current Version | Previous Version | Text Only | Print | Product List | Glossary Off
Versions: 1 2 3 4 5 6 7 8 9 10 11 12 13 14 15 16 17 18 19 20 21 22 23 24 25 26 27 28 29 30 31 32 33 34 35 36 37 38 39 40 41 42 43 44 45 46 47 48 49 50

000
ASUS45 KCYS 180610
RWRWY

WYOMING REGIONAL WEATHER ROUNDUP
NATIONAL WEATHER SERVICE CHEYENNE WY
1200 AM MDT SAT APR 18 2015

NOTE:  "FAIR" INDICATES FEW OR NO CLOUDS BELOW 12,000 FEET
WITH NO SIGNIFICANT WEATHER AND/OR OBSTRUCTIONS TO VISIBILITY.

WYZ001-180700-
YELLOWSTONE NATIONAL PARK

CITY           SKY/WX    TMP DP  RH WIND       PRES   REMARKS
LK YELLOWSTONE   N/A     28  21  75 CALM      30.15S
6HR MIN TEMP:  27; 6HR MAX TEMP:  51;

W YELLOWSTONE  NOT AVBL

$$
WYZ002>013-054>058-071-098>099-180700-
NORTHERN WYOMING

CITY           SKY/WX    TMP DP  RH WIND       PRES   REMARKS
JACKSON        FAIR      41  23  48 N12       30.09S
CODY           FAIR      45  30  57 SW9       30.07S
GREYBULL       FAIR      47  27  45 SE6       30.04S
6HR MIN TEMP:  47; 6HR MAX TEMP:  65;

WORLAND        FAIR      43  35  73 S9        30.05F
6HR MIN TEMP:  43; 6HR MAX TEMP:  61;

SHERIDAN       FAIR      41  33  73 S6        30.04F
6HR MIN TEMP:  39; 6HR MAX TEMP:  61;

BUFFALO        FAIR      45  37  73 S14       30.09F
6HR MIN TEMP:  45; 6HR MAX TEMP:  60;

GILLETTE       FAIR      44  39  82 SW7       30.08F
6HR MIN TEMP:  44; 6HR MAX TEMP:  57;

HULETT         FAIR      45  39  81 SW7       30.09F
NEWCASTLE      MOCLDY    43  43 100 CALM      30.10F

$$
WYZ014>020-022>026-101>103-180700-
CENTRAL WYOMING

CITY           SKY/WX    TMP DP  RH WIND       PRES   REMARKS
BIG PINEY      FAIR      33  27  78 CALM      30.12F
6HR MIN TEMP:  33; 6HR MAX TEMP:  54;

PINEDALE       FAIR      32  27  80 CALM      30.13S
DUBOIS         FAIR      32  23  69 W3        30.14F
LANDER         FAIR      40  35  83 W7        30.10F
6HR MIN TEMP:  40; 6HR MAX TEMP:  54;

RIVERTON       FAIR      39  33  79 N6        30.12F WCI  35
6HR MIN TEMP:  38; 6HR MAX TEMP:  54;

CASPER         CLOUDY    37  36  96 CALM      30.09F
6HR MIN TEMP:  34; 6HR MAX TEMP:  37; 6HR PCP:  0.15;

DOUGLAS        CLOUDY    37  37 100 W7        30.09F WCI  32
6HR MIN TEMP:  36; 6HR MAX TEMP:  37; 6HR PCP:  0.19;


$$
WYZ021-027>030-104>119-180700-
SOUTHERN WYOMING

CITY           SKY/WX    TMP DP  RH WIND       PRES   REMARKS
EVANSTON       FAIR      36  30  79 E12       30.12F WCI  28
6HR MIN TEMP:  36; 6HR MAX TEMP:  41; 6HR PCP: TRACE;

KEMMERER       FAIR      34  32  93 CALM      30.13F
FORT BRIDGER   PTCLDY    34  34 100 S9        30.15F WCI  26
ROCK SPRINGS   MOCLDY    35  33  92 NE8       30.09R WCI  29
6HR MIN TEMP:  34; 6HR MAX TEMP:  37; 6HR PCP:  0.01;

DIXON          MOCLDY    35  29  76 CALM      30.05F
RAWLINS        CLOUDY    32  32 100 E6        30.08S FOG     WCI  26
6HR MIN TEMP:  32; 6HR MAX TEMP:  34; 6HR PCP:  0.03;

SARATOGA       CLOUDY    30  30 100 S3        30.07F
LARAMIE        FOG       22  22 100 CALM      30.07S VSB 1/2
6HR MIN TEMP:  20; 6HR MAX TEMP:  33;

CHEYENNE       CLOUDY    33  32  96 N8        30.04F WCI  26
6HR MIN TEMP:  33; 6HR MAX TEMP:  36; 6HR PCP:  0.06;

TORRINGTON     LGT RAIN  41  40  96 W5        30.04F
6HR MIN TEMP:  40; 6HR MAX TEMP:  45; 6HR PCP:  0.37;

PINE BLUFFS    LGT RAIN  37  36  93 CALM      30.06R

$$



USA.gov is the U.S. government's official web portal to all federal, state and local government web resources and services.